Theta_e
352 352 353 355 354 355 356 351 349 350 352 349 348 349 344 346 345 344 342 346 344 356 357 348 362 369 369 373 366 360 354 354 356 353 357 356 355 352 351 351 350 352 355 358 361 364 366 367 367 366 366 365 364 363 363 361 360 359 358 357 357 357 356 355 352 350 350 349 349 350 350 350 349 349
356 354 352 351 352 356 354 353 353 353 357 351 349 351 349 352 352 351 343 344 348 348 353 351 352 366 366 361 358 351 353 356 353 355 353 358 358 350 351 350 349 349 350 352 355 359 363 365 366 365 365 364 365 364 363 363 362 361 360 359 359 358 356 354 351 350 349 349 349 349 350 350 349 349
354 354 350 350 355 360 357 355 353 353 355 355 355 354 354 353 353 352 344 339 351 351 346 348 349 349 349 348 348 355 355 354 357 360 360 359 356 353 353 351 349 347 347 347 349 353 357 361 361 361 361 361 365 365 364 363 362 361 361 360 359 358 356 352 350 349 349 349 349 349 349 349 349 349
354 356 355 359 363 360 358 357 357 358 358 357 355 355 359 357 361 354 345 342 343 350 348 349 351 353 352 354 350 359 354 355 355 359 361 358 357 357 359 353 351 349 347 346 345 346 349 354 358 359 360 361 364 365 365 364 363 362 362 361 361 359 355 352 350 350 349 348 348 348 348 348 348 348
356 359 360 360 361 363 357 357 356 354 353 354 354 356 356 354 357 356 348 342 339 346 352 351 353 353 354 353 354 353 360 362 361 357 360 359 360 359 358 357 350 348 347 346 344 343 344 347 352 356 357 359 363 364 363 362 363 361 361 360 359 356 352 351 351 350 349 347 347 347 348 348 347 347
359 358 359 359 357 360 358 357 354 354 354 353 353 353 353 351 347 348 345 341 339 339 348 349 352 355 356 351 354 355 352 355 360 360 360 360 360 358 358 357 358 348 347 346 345 344 343 344 347 350 353 354 358 361 362 361 359 355 355 354 350 347 348 348 348 348 348 347 346 346 346 347 346 346
362 357 359 359 360 358 354 355 355 356 354 354 352 352 353 352 350 350 349 345 340 340 341 345 347 350 354 352 350 355 356 356 356 355 358 359 361 360 359 357 357 349 348 346 344 342 341 341 342 344 346 348 350 352 354 354 348 344 342 341 339 340 341 341 342 344 345 347 347 346 346 346 346 345
356 358 355 355 355 357 355 354 355 356 355 351 350 351 350 352 351 350 347 346 341 341 339 345 347 350 348 349 355 357 355 356 356 357 357 360 359 359 360 358 357 354 349 348 345 342 341 341 339 339 339 340 342 342 340 339 339 339 338 336 335 336 337 338 338 339 342 342 343 345 345 345 345 344
351 351 349 349 353 354 352 353 353 354 351 352 351 350 349 352 352 350 346 346 347 344 342 343 347 349 348 350 352 356 352 352 353 355 354 356 357 358 358 359 359 353 350 347 345 343 342 341 339 337 337 336 336 335 335 335 335 335 335 335 335 335 335 335 335 336 336 336 337 338 340 340 340 340
350 351 350 350 350 348 349 351 355 353 352 352 353 352 353 353 351 351 350 349 350 347 345 344 344 347 346 346 347 351 352 349 347 348 352 355 356 355 352 352 355 357 356 356 358 347 341 339 338 338 338 336 335 335 335 334 333 333 332 331 331 331 332 332 331 331 331 331 332 333 334 335 336 337
352 352 353 351 350 351 352 351 353 354 353 353 352 352 353 352 350 348 350 349 346 345 345 345 345 346 349 347 345 350 353 351 349 346 345 345 351 353 352 349 353 355 352 349 348 350 351 349 348 341 335 334 334 334 334 335 336 337 334 330 329 330 330 330 330 329 329 328 328 328 329 331 333 335
352 355 356 357 357 356 354 352 354 353 353 352 352 354 353 350 350 349 348 347 343 342 342 343 344 345 345 346 350 351 351 348 349 349 345 341 342 344 348 349 348 353 351 350 350 349 349 348 346 342 340 339 339 337 337 336 338 339 337 333 331 330 329 328 328 328 327 327 326 326 325 325 326 330
355 356 357 357 358 357 355 354 355 353 353 351 350 351 352 350 350 349 347 347 342 342 344 343 343 343 342 342 343 344 345 344 343 346 345 341 343 344 344 346 350 353 350 348 348 347 348 347 350 353 354 355 347 344 340 342 342 341 338 334 332 330 329 328 327 327 326 326 325 325 324 323 322 323
356 357 356 356 357 357 355 353 353 353 354 354 354 352 352 351 349 348 347 346 344 343 342 340 339 338 338 341 342 343 345 347 348 345 343 341 344 345 344 344 347 352 352 346 337 341 348 349 348 350 351 353 357 354 349 345 343 340 335 333 332 330 330 328 327 326 326 325 324 324 324 323 323 322
352 354 355 355 355 353 353 353 352 352 353 354 354 354 353 353 351 347 346 345 345 343 341 342 341 340 339 343 344 342 344 347 345 343 342 342 343 341 339 337 345 359 355 349 346 344 348 348 345 345 346 348 347 348 353 344 339 337 335 333 331 330 330 329 328 327 326 325 324 323 323 322 322 321
352 353 353 353 355 353 354 354 353 353 353 352 354 355 354 354 355 353 350 346 344 344 343 342 342 342 342 343 344 344 345 345 345 345 344 343 343 341 340 338 337 350 356 346 342 340 345 349 347 344 345 345 346 343 337 337 338 336 335 333 332 330 329 328 328 327 326 325 324 323 322 322 322 322
354 355 353 354 355 353 352 347 346 346 346 347 350 353 355 354 354 349 348 350 349 348 345 343 343 345 343 342 344 347 347 349 343 343 340 341 340 339 337 338 339 343 350 345 342 339 342 342 341 339 342 340 341 344 336 334 334 334 334 332 332 330 330 328 327 326 325 324 323 322 321 320 321 320
354 352 348 350 350 349 344 340 340 342 342 343 346 350 354 354 355 353 350 350 352 350 347 346 343 344 347 345 347 349 348 344 341 339 337 339 338 338 338 342 343 345 348 342 342 338 341 341 339 338 340 340 340 347 332 328 330 330 329 329 329 328 328 328 327 326 325 324 323 321 320 319 319 319
351 350 349 349 348 349 341 335 336 337 338 341 345 347 350 353 354 355 354 352 350 350 347 343 342 342 343 344 344 345 347 344 343 342 341 341 340 342 343 342 344 345 353 350 344 336 339 340 336 338 338 338 338 342 325 326 329 330 329 329 327 327 326 326 325 325 324 323 322 320 319 318 317 317
355 354 352 350 348 348 344 332 329 331 336 340 343 345 346 348 350 356 357 347 345 348 347 347 344 340 340 336 340 341 341 344 348 346 345 345 343 342 339 336 338 345 348 349 345 337 335 339 335 337 338 337 337 339 342 327 329 328 328 327 326 325 324 324 323 323 323 322 321 320 318 317 315 315
353 352 350 346 343 343 340 328 322 325 335 340 342 343 344 344 344 346 346 338 337 336 333 331 328 326 323 325 326 327 328 334 338 340 340 339 338 336 333 334 334 336 343 344 344 338 333 337 336 333 335 337 333 332 339 340 329 326 328 326 325 324 324 323 323 323 323 322 321 321 319 317 316 316
351 348 351 344 338 336 331 322 321 322 333 338 340 340 340 339 341 338 339 340 341 333 332 333 331 331 331 333 335 336 334 332 338 339 337 338 337 335 334 331 332 333 340 343 343 337 335 335 337 332 334 333 335 337 337 339 338 324 322 322 323 323 323 323 323 323 322 322 321 321 319 317 315 321
348 341 342 342 335 331 324 319 319 320 328 335 339 339 339 338 337 333 335 336 339 339 339 341 340 342 341 343 343 344 345 345 344 343 341 341 338 334 333 333 333 330 337 340 344 335 334 332 334 332 328 325 330 333 337 334 341 338 339 334 327 323 324 325 323 322 321 321 321 320 317 315 313 324
346 343 337 332 324 322 320 318 317 318 320 331 337 337 334 333 331 332 333 338 341 340 340 341 342 344 348 345 345 346 345 344 344 344 346 343 339 337 334 333 332 329 331 343 343 336 335 336 332 335 332 325 323 329 330 333 338 335 335 340 337 333 326 325 322 320 319 319 319 318 317 316 316 325
344 343 338 335 326 319 319 318 315 315 319 328 338 335 333 332 329 327 332 337 343 340 340 341 342 340 341 339 342 345 345 344 345 346 346 342 341 338 336 334 332 331 334 345 339 339 334 334 332 333 333 331 329 327 330 331 334 334 338 344 336 339 335 334 331 334 321 317 316 315 314 314 314 318
343 343 338 336 328 318 318 316 313 313 317 325 339 331 317 316 319 329 334 337 340 340 339 339 338 338 339 337 337 338 338 339 341 341 340 341 342 343 341 339 335 331 333 346 335 342 335 332 332 330 330 329 328 330 327 329 331 332 341 339 336 339 338 335 335 335 334 330 326 316 318 315 315 312
345 344 341 337 332 319 313 310 313 314 321 337 327 313 315 318 321 329 339 339 337 337 337 337 336 337 336 335 336 337 339 339 341 340 342 343 342 342 339 338 338 335 338 342 344 342 337 332 334 331 329 330 327 327 327 326 328 334 333 334 335 337 338 334 337 334 334 336 333 321 317 317 315 313
344 343 339 336 317 314 309 309 312 315 325 328 316 314 318 324 334 337 335 332 333 331 331 332 332 332 333 334 334 335 338 341 340 341 341 341 341 339 337 339 343 341 342 343 343 341 338 334 334 335 331 330 326 324 323 328 329 329 328 331 332 332 333 336 335 334 333 335 332 331 329 328 323 318
339 329 320 315 314 314 311 310 315 320 329 323 323 322 327 332 330 331 330 330 328 326 324 325 327 327 329 332 332 334 337 342 345 342 342 342 343 341 340 340 341 341 343 344 344 343 340 337 333 334 333 332 327 327 327 326 328 327 328 328 326 330 331 332 331 333 334 333 330 331 329 327 327 329
327 323 319 316 316 319 323 333 339 339 340 332 330 330 332 328 327 327 325 326 325 323 322 322 322 323 326 328 330 333 334 335 340 339 334 334 335 335 335 332 334 338 342 343 345 342 338 336 335 334 332 332 332 329 329 328 326 328 329 328 329 331 331 331 331 330 329 330 331 334 332 330 328 328
342 341 338 338 328 329 331 335 337 338 337 334 333 326 326 328 325 326 325 323 321 321 321 320 320 322 324 326 328 328 328 328 330 331 330 328 328 330 332 330 329 330 335 341 344 340 339 338 338 337 332 332 332 330 329 329 327 327 328 329 329 325 328 330 330 330 330 330 331 330 331 331 332 333
338 344 342 339 344 343 341 339 339 338 332 329 327 329 327 330 324 324 322 320 320 321 322 322 322 324 323 321 321 322 322 323 324 326 326 326 327 330 328 326 326 326 327 329 335 340 341 340 340 339 337 334 328 329 331 329 328 328 328 329 329 330 331 329 328 329 331 329 328 327 328 328 326 327
340 344 344 342 341 334 331 329 327 326 325 325 326 326 323 324 319 319 315 314 316 318 320 319 319 318 318 318 318 318 317 320 321 323 323 326 327 326 326 324 322 321 320 320 323 326 335 339 339 337 337 335 333 331 329 326 327 328 327 328 328 327 328 328 328 327 329 328 327 327 326 329 331 330
338 336 335 335 329 327 326 322 322 320 320 320 319 319 321 320 316 316 315 314 314 315 317 316 316 317 314 313 314 314 315 316 317 319 321 320 321 322 320 318 319 320 320 318 319 322 321 321 322 324 331 335 337 335 332 328 326 327 329 328 326 325 327 329 330 329 328 328 326 324 324 324 326 328
335 331 327 326 325 324 321 319 317 317 317 317 316 315 315 316 314 315 315 314 314 313 314 314 316 314 312 312 314 313 314 314 314 315 317 318 319 318 317 316 315 316 316 316 316 315 316 316 318 319 320 322 323 328 329 333 328 324 325 326 325 323 323 326 328 330 330 328 327 323 323 323 324 326
330 326 324 322 319 319 317 316 317 315 314 315 313 314 313 313 314 313 314 314 312 312 312 313 314 312 312 313 313 313 313 314 313 314 315 315 315 315 314 314 314 314 314 313 312 314 314 315 317 316 313 312 312 312 315 324 325 330 318 315 317 318 319 320 321 322 324 325 327 325 322 321 323 325
324 323 321 316 317 316 314 315 316 316 314 314 314 313 314 314 315 316 317 318 313 313 313 313 312 311 312 312 312 312 312 312 311 313 312 312 313 312 311 311 312 311 310 311 313 314 316 314 315 312 308 307 306 306 309 315 315 316 318 314 314 315 315 316 317 318 321 324 323 324 323 323 322 324
319 318 315 315 315 316 317 315 316 317 316 316 318 315 315 314 316 322 320 317 312 312 312 312 311 311 311 312 310 310 310 311 311 311 310 310 310 309 310 309 308 309 309 311 314 314 313 312 312 312 308 305 304 304 305 309 311 313 315 314 313 314 316 316 316 316 318 322 320 321 322 320 321 323
318 317 317 316 317 317 316 317 318 316 318 317 316 315 314 314 314 318 314 316 317 313 312 312 312 312 312 311 311 310 309 308 308 309 309 309 309 308 309 309 308 308 309 309 310 310 311 311 312 310 309 306 305 306 308 307 308 312 314 313 314 313 314 315 315 317 317 315 315 318 320 323 323 320
320 320 319 319 320 320 320 319 318 318 316 316 315 319 317 314 316 315 313 315 313 313 313 312 313 311 310 310 309 308 308 308 308 308 307 307 308 309 308 309 308 308 308 307 306 307 308 308 310 310 310 311 312 313 312 311 311 313 315 317 314 315 317 318 316 315 314 315 318 316 313 314 312 318
320 320 320 322 319 318 317 316 316 315 316 317 317 318 317 318 318 314 315 317 316 316 313 310 311 310 309 309 309 308 307 308 308 307 308 307 308 308 309 309 307 307 306 305 306 306 307 309 312 314 313 311 311 312 309 307 305 307 309 312 312 313 314 313 315 316 314 316 315 313 311 310 310 312
323 323 320 318 317 317 319 318 318 317 317 317 316 314 315 317 315 314 317 317 315 319 312 310 310 310 309 309 309 309 307 307 307 307 307 307 306 307 308 307 305 305 305 304 305 306 308 310 311 310 309 308 308 305 303 304 304 305 307 309 311 312 313 313 313 312 314 314 312 311 311 312 312 311
320 317 317 318 319 320 318 320 319 318 316 316 317 319 317 314 314 314 312 312 314 314 310 310 310 310 309 309 309 309 307 307 306 306 306 306 306 305 305 305 305 305 305 305 306 307 307 308 308 307 306 305 305 305 302 304 305 305 306 307 308 310 312 311 312 311 311 311 312 312 313 312 310 308
319 318 318 320 319 323 323 322 320 324 320 317 316 316 315 314 313 313 312 311 311 310 311 311 311 309 309 309 309 308 307 307 307 306 306 306 306 306 305 305 305 305 305 305 305 305 306 306 306 306 304 303 304 303 302 303 303 304 304 306 308 308 308 310 312 311 310 311 314 314 312 313 315 316
324 322 323 322 324 323 324 325 323 319 316 315 313 313 313 312 312 311 311 311 310 310 310 309 309 309 308 308 307 306 307 309 308 307 307 306 305 306 305 305 304 304 304 304 304 303 304 304 304 305 303 303 304 303 304 303 302 303 304 304 304 305 306 307 307 307 308 309 311 311 312 313 314 314
Wind_Speed
6 5 5 3 5 5 3 4 5 5 6 7 6 4 5 4 5 3 4 3 4 2 2 3 1 2 3 2 3 3 6 4 6 5 6 6 4 3 10 11 12 17 20 16 15 16 17 17 17 19 20 19 20 21 20 20 20 21 20 20 19 19 19 18 16 15 15 14 14 15 15 16 15 14
4 6 7 5 5 5 5 5 6 5 3 4 5 5 6 6 5 2 5 5 3 5 3 3 3 1 3 3 4 4 5 5 4 3 3 3 3 9 9 12 14 15 15 15 15 16 16 16 16 18 20 22 23 23 24 23 22 22 21 20 20 20 21 18 17 16 15 15 14 15 15 16 15 15
5 5 6 6 4 2 4 5 5 5 3 3 3 4 4 3 4 3 2 7 2 3 5 5 6 8 14 14 14 7 2 1 1 3 2 2 5 10 8 10 12 13 13 13 14 14 16 16 15 16 19 22 23 22 22 24 25 25 23 22 22 22 20 18 17 16 15 15 15 14 15 15 15 15
5 4 5 3 2 3 3 4 5 4 4 4 4 4 3 3 1 4 1 5 8 5 7 7 6 9 5 3 5 7 2 2 1 2 2 2 5 6 6 8 9 9 8 9 12 14 14 16 14 15 18 21 23 22 21 21 24 25 23 22 23 21 19 18 16 16 16 16 15 15 14 14 15 15
6 4 4 3 3 3 5 4 5 5 6 5 4 3 4 4 2 4 3 4 9 8 6 6 4 4 1 4 5 6 1 1 2 3 3 3 3 3 4 3 6 10 9 9 10 12 13 14 16 16 18 21 23 22 22 21 22 23 22 22 21 19 17 16 16 16 15 15 15 16 16 16 16 16
4 5 4 4 5 3 5 6 6 6 5 5 5 4 5 5 8 7 4 2 3 8 6 5 5 5 2 5 5 4 3 2 2 4 4 3 3 5 4 4 4 7 8 8 10 13 15 16 14 16 20 21 21 21 20 21 21 20 20 20 19 17 17 16 14 13 12 14 16 17 17 18 17 17
4 5 5 4 3 2 5 7 5 5 5 5 6 6 5 4 3 3 2 2 4 5 6 5 5 4 4 5 4 5 3 4 4 5 4 3 2 2 3 4 3 7 10 10 10 12 14 16 18 19 19 17 16 17 17 17 17 15 15 16 15 15 14 11 15 15 14 13 14 16 17 17 18 18
6 5 6 7 7 4 3 4 5 5 4 4 3 5 4 3 2 1 1 5 5 4 6 4 5 4 6 5 5 4 6 6 4 3 3 2 3 2 3 4 5 6 10 10 10 11 13 14 14 12 12 12 12 13 14 15 16 14 13 14 15 14 14 16 16 16 16 16 15 15 16 17 18 18
5 7 4 5 5 5 5 4 4 4 6 5 3 2 3 2 2 2 1 4 5 5 6 4 4 4 5 4 4 3 4 4 4 3 4 3 3 3 4 3 3 3 6 8 12 10 11 12 11 11 12 12 12 13 14 15 14 14 13 13 13 12 13 12 12 12 13 13 14 15 15 16 17 17
3 4 1 3 6 6 6 6 3 2 6 5 4 4 3 3 2 2 4 4 4 5 5 5 4 2 3 3 3 4 3 4 5 4 2 2 2 2 4 4 4 2 1 3 4 6 7 10 12 13 12 12 13 13 13 13 12 12 12 13 13 12 12 12 12 12 12 12 13 13 14 14 14 16
4 4 3 6 6 8 5 5 6 3 3 4 6 5 3 3 2 3 2 1 2 3 4 3 4 4 2 2 3 3 2 4 4 4 4 3 2 2 3 6 5 2 3 5 8 9 9 9 7 8 11 12 14 14 13 13 13 12 12 13 13 13 13 13 13 13 12 12 12 12 13 13 13 13
5 4 4 3 3 3 2 5 4 5 3 3 4 4 3 4 5 4 4 2 1 3 4 3 4 3 3 3 3 3 3 3 2 1 2 4 5 4 3 4 6 4 3 4 4 5 7 7 10 12 12 13 13 14 13 14 14 15 14 14 14 13 12 13 13 13 13 13 13 13 14 13 13 14
4 4 4 3 3 3 4 6 9 9 8 6 6 5 3 3 3 4 4 2 2 2 4 3 3 4 3 3 4 3 2 3 3 1 1 4 5 4 5 5 5 6 5 4 5 5 4 6 5 4 4 6 10 11 15 12 14 16 15 15 13 13 12 12 12 12 12 11 11 12 12 13 13 13
3 3 3 4 8 8 6 5 6 5 6 7 6 5 5 4 3 4 4 3 2 3 3 3 3 4 5 4 3 4 3 3 2 3 3 4 4 3 4 5 5 3 2 0 4 8 6 5 5 4 5 5 6 6 6 8 10 12 14 14 11 10 10 11 11 11 11 11 12 12 13 13 13 13
4 4 4 3 4 3 1 1 0 4 5 7 7 8 7 6 4 4 5 4 3 2 3 3 3 4 5 5 3 3 5 3 2 3 3 4 4 4 4 4 2 1 1 0 2 4 5 5 6 5 5 5 5 6 7 11 13 12 8 6 7 9 10 10 11 11 11 11 11 11 11 12 12 13
2 3 3 3 1 3 4 5 6 7 8 7 6 7 8 7 7 5 5 4 3 3 3 3 3 3 4 4 3 4 3 3 3 3 4 4 4 4 3 3 3 2 1 0 2 6 6 4 4 5 6 6 5 3 6 2 5 7 6 6 5 4 5 6 7 9 9 10 10 11 11 11 11 11
1 1 2 2 3 5 12 8 6 5 6 9 11 10 4 4 5 5 6 6 4 3 3 4 4 3 3 4 3 3 3 1 3 3 4 3 3 3 4 4 3 3 0 2 3 3 5 5 5 4 4 6 5 2 4 5 6 4 3 3 2 2 4 5 6 6 6 7 7 8 9 9 9 10
3 5 5 5 4 6 6 5 6 5 6 5 6 5 3 0 2 4 4 5 7 5 4 3 4 3 2 4 2 2 4 4 3 3 4 3 4 5 5 5 7 7 4 4 1 2 3 4 4 3 3 4 4 2 3 6 6 5 5 5 5 5 5 4 4 5 6 7 8 8 9 9 9 9
6 4 2 3 4 5 5 5 7 6 6 6 6 6 4 2 3 2 4 4 3 2 2 2 3 3 4 5 4 3 2 3 3 3 3 4 5 5 5 7 8 4 1 1 1 2 3 3 4 3 3 4 4 1 4 5 6 7 6 6 5 5 5 5 6 6 6 7 7 8 8 7 7 7
3 3 2 3 5 5 5 9 12 9 7 5 6 6 6 5 3 2 4 5 5 5 2 1 2 2 2 1 2 3 3 3 3 3 4 5 5 5 4 5 4 1 1 2 0 1 3 3 5 2 3 4 4 3 2 5 8 7 7 6 7 6 5 5 5 6 7 6 6 5 5 5 6 7
5 7 7 7 6 6 6 11 11 12 10 5 6 6 6 6 6 5 4 3 4 5 4 4 3 2 1 1 2 5 6 4 4 3 3 4 3 5 5 5 4 3 1 1 1 1 3 4 3 4 3 3 5 6 2 4 5 6 7 7 6 6 7 8 8 8 7 6 5 6 6 6 6 8
8 11 17 10 6 6 6 10 10 11 8 5 5 6 6 6 3 7 8 4 0 5 7 8 5 4 1 1 3 4 6 8 3 2 4 4 4 4 5 5 5 6 3 2 3 1 2 5 4 4 3 3 3 2 0 1 4 6 5 7 8 9 10 9 10 9 8 8 7 7 6 6 5 5
7 7 10 15 11 8 6 7 8 10 8 4 6 6 6 6 7 7 8 6 5 5 5 3 2 4 4 3 3 4 7 8 7 3 5 4 4 5 5 6 5 6 2 2 3 3 3 5 5 5 4 3 3 4 3 7 2 5 6 5 6 10 9 10 10 10 9 8 9 8 5 5 4 4
6 6 6 8 10 7 5 5 6 6 6 5 5 6 6 7 7 8 7 7 6 4 3 3 4 4 2 4 4 4 4 5 4 4 4 3 4 5 5 4 4 4 3 1 3 4 3 3 5 4 4 5 4 3 5 5 3 5 5 4 4 8 10 9 8 11 10 10 11 8 7 8 8 4
6 6 6 5 5 5 5 5 5 5 5 5 4 4 4 3 4 6 5 8 13 8 6 5 6 6 6 7 4 3 2 2 3 3 3 4 3 4 4 4 4 4 3 2 2 2 3 4 5 5 5 3 4 5 3 5 6 5 3 3 4 4 4 6 6 5 9 13 11 8 9 11 12 7
6 5 5 4 3 6 8 9 9 8 6 7 5 6 5 8 7 5 5 6 5 6 6 6 4 5 4 3 4 4 5 4 4 4 5 6 5 4 4 5 4 4 5 1 3 1 2 4 3 5 5 4 5 5 6 5 6 8 4 4 4 4 5 5 4 3 3 5 5 7 10 13 12 9
5 5 5 4 4 4 5 7 9 10 11 7 5 8 9 7 9 7 4 7 7 6 6 6 6 5 6 6 6 4 4 5 4 4 3 3 4 5 6 7 6 8 9 6 3 2 1 3 2 4 6 4 6 6 6 6 5 5 6 5 4 4 4 3 3 2 3 3 5 12 13 11 8 8
5 4 3 3 3 1 3 4 6 7 8 5 7 8 9 9 6 5 6 7 7 7 7 7 6 6 6 6 5 6 5 3 4 4 3 4 3 3 5 6 6 7 7 6 4 2 1 2 4 4 6 4 4 5 6 6 7 5 6 7 6 5 4 3 3 3 4 3 3 5 5 5 5 4
4 3 4 3 0 2 4 4 4 6 7 5 7 8 7 11 5 6 6 6 6 7 8 7 7 7 6 6 6 8 7 4 1 3 2 3 2 4 5 5 6 6 5 4 2 0 1 2 4 4 4 3 4 5 5 6 6 6 5 5 7 5 6 6 5 4 3 2 3 3 3 3 2 5
3 1 2 4 5 4 4 1 0 2 3 9 11 12 10 4 5 5 6 6 6 6 6 6 7 7 7 7 6 6 7 6 3 4 5 5 4 4 4 5 5 5 4 3 1 1 2 2 3 3 4 5 5 6 6 6 6 6 6 6 6 6 5 5 4 4 5 4 4 3 4 3 4 4
2 2 2 1 1 2 4 5 5 3 6 4 3 5 5 4 6 5 6 7 8 7 6 5 6 5 5 6 6 6 6 7 7 5 5 6 6 5 4 5 6 5 4 1 2 2 2 3 4 3 4 6 5 6 6 5 7 6 6 6 5 6 3 5 4 5 3 3 2 3 3 3 4 3
5 2 2 0 2 2 2 3 2 2 4 5 6 4 4 3 6 8 13 10 6 5 5 5 6 4 5 6 6 6 6 6 6 6 7 6 6 5 5 5 4 4 4 4 3 3 5 3 3 4 4 4 5 6 5 5 6 6 7 6 6 5 4 5 7 6 6 6 6 5 4 5 7 6
4 1 2 1 2 3 3 4 5 5 6 5 4 5 6 5 7 6 6 7 7 7 6 6 6 6 6 6 6 6 6 6 6 6 7 6 6 6 5 5 5 5 6 6 5 7 4 3 4 5 6 5 6 7 6 6 6 6 6 5 4 5 3 2 3 4 5 5 5 5 5 5 5 4
2 3 3 3 4 5 5 6 5 6 5 5 5 5 6 5 7 6 6 7 7 7 6 6 6 6 7 7 7 6 6 6 7 7 6 6 6 6 5 6 5 6 6 6 6 7 8 9 9 8 6 6 6 7 7 7 8 7 4 4 2 5 5 5 3 4 3 5 5 5 6 6 5 5
2 5 6 6 6 5 5 6 6 6 5 5 6 6 6 6 8 7 6 7 7 7 7 7 5 7 7 7 7 7 7 7 7 7 7 6 6 7 7 7 7 7 7 7 7 8 8 9 9 7 6 6 5 3 7 8 3 5 5 5 5 6 6 4 4 3 4 4 4 5 6 6 7 5
5 5 4 5 5 5 7 6 5 6 7 6 6 6 7 7 6 6 6 6 8 7 8 8 6 8 8 7 7 8 8 7 7 7 7 7 8 8 8 8 8 8 8 8 8 8 8 8 8 7 8 9 7 6 5 5 5 3 7 7 7 7 6 6 5 6 6 6 5 5 5 6 6 5
6 5 6 7 6 6 6 6 5 5 6 6 5 5 5 5 4 3 3 5 6 6 8 7 7 8 7 7 8 7 8 8 8 7 8 8 7 7 7 6 7 8 8 7 7 7 6 8 8 7 8 8 8 9 9 8 12 11 7 8 9 9 9 8 7 7 7 6 5 5 5 4 4 5
7 7 6 7 6 5 5 5 5 4 4 4 3 4 5 5 5 2 3 4 5 5 7 6 6 6 6 6 7 7 7 7 7 6 6 7 7 7 6 6 6 6 7 7 6 6 6 7 7 5 6 6 8 8 9 8 8 9 9 9 9 10 9 8 8 7 7 5 6 5 3 4 5 4
5 5 5 5 5 4 5 4 4 5 4 4 5 5 5 5 5 3 5 3 3 4 5 5 4 5 5 6 5 6 7 7 7 6 6 6 6 6 6 6 6 6 6 5 6 6 6 5 6 7 8 7 7 7 8 9 8 8 12 17 12 9 9 8 8 8 6 6 6 5 4 3 5 10
4 4 5 4 4 4 3 4 4 3 4 5 5 3 2 3 4 3 4 3 5 5 5 5 6 7 7 8 8 8 9 10 9 9 10 10 10 10 9 7 8 8 7 8 8 8 8 9 10 11 11 9 8 7 7 8 9 8 7 9 13 7 4 5 6 7 7 6 5 6 7 7 7 3
3 3 3 3 4 5 5 5 6 6 5 4 5 3 6 5 4 4 4 3 3 3 3 6 6 6 7 7 7 7 7 8 8 9 9 8 9 10 13 14 10 10 10 9 9 9 9 9 13 20 15 11 11 9 8 7 8 7 8 8 12 18 20 13 5 4 7 6 6 8 8 8 7 5
4 4 4 6 5 3 3 4 3 2 3 3 4 5 5 4 5 7 3 4 6 2 4 5 4 4 5 5 7 8 8 8 8 9 9 9 9 8 10 9 9 9 9 10 10 10 9 9 11 11 10 11 10 11 11 12 12 12 11 8 6 11 15 19 22 18 10 7 8 8 7 6 4 6
5 6 6 5 5 5 5 4 3 4 4 4 3 3 4 4 4 4 5 5 5 3 5 4 5 5 6 7 7 7 7 7 8 8 9 8 9 9 9 8 9 9 9 9 8 9 9 10 10 10 10 9 10 10 11 12 11 11 11 11 11 9 9 14 16 17 17 17 15 14 11 8 5 5
4 5 4 2 3 2 2 2 1 1 3 4 5 5 5 4 4 5 5 6 7 7 5 4 4 5 5 6 6 7 7 7 7 7 7 8 8 8 8 9 9 8 8 8 8 8 8 8 8 8 9 9 9 10 12 13 12 12 12 12 11 11 11 9 9 12 14 14 16 15 15 16 16 16
2 3 2 2 1 3 2 1 2 3 5 5 5 6 6 6 7 7 7 7 7 8 7 6 6 5 6 6 7 7 7 8 8 7 7 7 7 7 7 8 8 8 8 7 7 8 7 7 7 6 6 7 8 9 10 12 13 12 12 12 13 13 12 12 13 12 10 9 12 15 15 15 17 17
Wind_Direction
292 272 268 287 274 270 284 303 313 325 346 338 328 310 285 281 268 286 291 290 306 351 357 311 321 3 335 353 357 332 42 28 29 53 87 123 141 190 163 177 204 232 241 240 248 247 237 232 233 240 244 240 237 237 236 235 232 233 233 232 231 232 234 235 236 232 231 227 218 216 215 219 222 223
301 304 306 310 329 349 333 325 323 326 21 331 337 335 334 343 321 312 319 307 311 305 302 298 302 288 278 314 310 6 73 55 79 49 107 134 156 182 196 198 209 230 245 243 241 243 243 236 231 241 251 254 247 243 242 239 237 234 234 234 234 235 240 239 236 233 230 227 222 218 213 216 219 220
271 280 278 272 281 345 326 313 305 308 321 318 306 300 301 317 327 72 165 277 269 314 303 301 318 359 11 6 338 339 26 287 158 134 140 177 187 204 215 218 222 223 232 246 252 254 252 246 234 238 243 247 247 243 241 242 242 240 240 240 241 243 243 240 237 233 231 228 226 223 220 220 221 221
268 265 269 282 290 300 293 293 293 291 286 288 291 289 320 307 296 123 210 279 293 308 300 308 340 48 9 360 277 264 206 286 334 144 260 233 184 202 240 219 236 257 264 262 266 270 271 266 256 247 250 250 248 243 241 238 239 240 240 240 240 241 240 240 236 232 228 225 223 223 223 223 222 222
287 291 283 271 269 278 284 283 284 285 291 292 284 282 273 275 327 19 8 327 296 299 317 325 30 354 356 267 248 277 237 188 183 193 213 225 207 224 255 251 229 244 258 264 259 261 262 261 263 262 260 264 261 253 249 246 242 241 240 239 241 241 239 239 238 233 229 226 223 220 218 218 219 220
262 277 289 301 306 315 298 295 291 297 306 309 311 322 342 2 34 37 28 284 285 298 315 328 350 334 257 262 255 269 298 276 225 216 236 250 218 220 220 223 227 222 241 249 259 263 266 269 256 250 252 254 259 262 257 253 253 254 252 249 248 246 245 248 254 254 243 225 226 224 220 218 216 217
288 296 294 301 313 14 327 311 321 339 331 344 336 342 3 32 30 84 74 19 312 304 303 304 296 278 272 269 299 273 270 255 247 255 251 247 249 223 227 252 253 202 217 204 210 227 233 231 234 237 241 248 256 265 270 271 267 257 259 267 265 260 263 264 259 253 252 251 239 229 224 222 220 218
312 316 329 333 345 348 314 310 326 330 344 330 324 330 352 25 35 130 195 190 228 249 273 262 267 269 292 302 291 282 256 265 283 298 309 274 249 265 238 237 242 221 211 214 212 226 237 244 245 247 255 263 265 265 265 265 265 263 249 239 244 255 253 245 239 234 232 235 242 236 227 224 225 224
325 316 341 316 297 320 314 300 273 267 285 282 264 248 258 254 181 156 299 263 227 245 264 277 255 273 276 271 278 290 308 299 287 287 282 283 263 257 266 268 257 264 256 257 260 243 235 240 242 243 247 252 255 254 255 258 262 264 265 266 262 255 253 253 252 249 243 235 232 233 230 227 225 226
297 277 240 294 299 278 268 282 311 320 295 292 273 254 250 219 210 224 250 236 238 254 254 266 292 267 273 296 286 289 303 307 307 300 284 292 278 277 304 305 298 306 334 308 264 244 236 233 232 232 237 244 250 255 258 260 261 259 260 260 260 261 262 260 258 257 254 249 247 245 243 240 233 229
258 248 234 178 229 258 244 255 263 261 260 289 297 299 298 300 311 268 226 279 303 277 277 275 265 282 263 229 285 273 265 273 268 289 316 315 344 345 313 308 298 251 249 255 269 266 265 271 269 247 238 239 244 249 252 255 255 253 250 250 250 249 250 252 254 254 252 250 251 253 251 248 246 242
261 253 251 250 223 249 339 322 327 283 244 235 263 278 306 295 281 297 311 290 281 292 275 263 281 264 284 274 256 256 250 266 226 153 358 306 305 305 289 275 288 279 237 251 268 278 275 265 259 260 260 253 249 249 253 255 255 252 246 240 238 240 240 242 245 245 244 244 245 247 249 251 246 243
264 262 274 276 254 262 302 313 329 327 324 316 309 296 276 282 284 298 282 259 238 263 270 293 329 310 302 292 296 291 287 290 300 349 336 282 276 274 288 282 263 255 253 290 316 286 239 261 263 242 235 240 236 240 238 246 245 242 240 236 231 228 233 238 243 246 249 249 249 251 251 250 250 251
279 280 315 320 322 17 26 340 313 319 310 306 292 290 305 299 289 301 309 300 269 293 303 292 290 299 286 273 280 298 297 290 314 318 296 286 293 291 275 268 255 227 231 225 304 297 294 275 262 245 249 258 235 236 221 222 228 235 234 238 237 227 230 235 239 244 246 246 245 247 250 251 250 246
306 356 3 34 332 19 13 5 348 290 304 292 283 278 271 279 290 294 297 305 306 285 277 259 271 275 279 284 287 274 284 294 303 292 291 281 283 286 309 315 303 157 192 196 283 279 274 283 289 276 258 257 249 235 228 232 233 242 256 253 237 229 229 230 232 237 240 241 243 245 245 249 252 251
354 354 7 330 351 42 36 35 13 6 352 343 312 282 270 274 275 272 253 275 297 285 289 295 279 280 289 308 294 281 283 308 293 266 256 248 257 279 279 296 289 239 141 177 261 275 267 254 260 272 272 273 276 61 67 89 237 235 242 255 262 261 251 239 233 233 233 234 237 239 241 243 246 252
346 326 275 288 87 74 49 29 13 0 347 340 333 329 306 278 273 236 222 223 239 260 275 299 307 290 303 300 296 303 318 294 286 320 320 331 325 302 287 277 309 290 3 280 247 278 313 308 279 280 348 348 342 75 57 68 78 79 115 115 170 202 217 233 242 244 244 246 246 247 249 247 242 243
68 52 30 16 42 82 55 32 8 348 339 328 320 321 320 220 272 231 214 210 218 227 246 273 303 322 304 269 281 338 347 329 331 327 294 312 322 316 309 313 295 288 272 241 312 283 281 305 334 333 329 330 310 65 115 102 103 108 120 142 177 190 211 228 247 251 252 248 243 240 237 236 235 234
75 76 58 44 39 77 69 35 7 353 337 328 321 316 319 290 200 183 162 168 201 223 7 348 335 330 348 2 354 341 323 296 286 278 294 286 271 278 287 279 266 273 14 10 68 290 307 304 317 322 309 303 309 326 124 138 142 156 165 177 185 198 197 215 220 233 239 243 248 250 249 250 252 255
108 108 55 40 46 47 60 25 9 358 332 321 327 331 327 323 306 153 132 125 88 68 18 325 331 326 7 5 333 339 327 303 303 318 311 297 272 267 289 305 317 320 114 353 126 310 300 303 279 293 317 317 294 299 144 183 170 173 177 184 186 189 193 208 218 226 231 238 254 265 271 276 280 278
61 59 47 43 34 29 33 12 359 352 346 333 344 336 334 337 334 64 68 90 112 133 213 247 260 238 195 290 309 312 302 299 327 323 302 293 337 342 320 311 314 336 12 204 14 71 296 293 303 315 296 325 311 298 61 156 213 207 193 188 192 195 203 207 219 229 237 246 247 255 266 279 287 286
81 62 59 53 47 41 25 6 3 357 348 348 348 350 340 328 360 42 10 8 45 212 243 249 237 257 218 207 258 274 285 287 289 321 311 326 335 325 321 318 337 313 305 69 22 3 287 321 328 317 317 318 309 335 23 190 171 204 216 213 205 209 210 212 224 229 231 229 230 236 244 255 272 282
100 84 62 59 56 54 36 20 18 15 9 352 351 353 345 351 11 23 358 347 347 338 329 335 197 234 224 234 233 240 243 263 276 258 270 317 350 323 324 324 322 317 17 9 346 311 324 332 322 335 326 310 301 298 334 330 228 191 202 196 219 223 215 219 229 236 234 231 233 226 220 243 250 275
119 105 84 58 51 45 40 35 29 22 13 5 350 6 10 2 357 351 341 323 311 299 287 290 302 313 285 210 216 225 238 243 257 266 285 340 341 314 300 300 312 299 320 19 336 333 307 314 308 339 322 314 305 322 308 291 285 288 274 204 194 216 214 226 248 248 234 231 232 223 206 225 225 266
69 76 75 77 51 23 34 41 28 20 357 346 353 28 22 11 317 316 319 322 325 318 327 341 360 354 16 353 343 321 303 310 300 298 334 341 315 300 316 304 297 294 302 15 311 338 313 329 302 315 305 297 289 301 304 300 289 289 279 183 231 193 174 212 224 221 217 221 221 206 211 222 227 224
70 73 78 78 34 13 22 15 11 7 3 341 25 14 343 318 324 321 312 299 316 342 354 356 16 347 10 354 355 7 351 320 299 336 333 327 327 322 304 289 291 306 303 210 179 14 303 297 308 313 306 307 304 308 309 303 296 288 247 238 238 219 182 211 201 205 185 182 185 190 216 225 230 213
49 78 95 102 89 22 11 2 354 353 359 26 22 338 325 317 310 298 329 8 7 1 357 4 12 9 12 2 6 356 347 329 339 336 315 298 298 322 333 320 343 308 285 289 277 206 167 253 282 282 281 286 299 301 288 286 294 318 316 323 331 317 265 229 192 195 223 184 170 192 206 220 210 219
62 74 76 89 114 33 347 341 336 332 330 342 337 336 321 311 312 352 14 20 10 2 358 3 7 7 3 355 352 352 335 315 327 331 334 326 329 325 285 277 239 234 268 279 269 218 205 267 294 295 299 293 281 279 288 287 283 294 304 314 313 301 312 329 291 253 241 204 206 169 192 171 187 196
58 68 83 90 134 259 280 290 296 298 286 301 358 329 0 35 25 12 19 15 13 11 2 356 353 351 348 349 350 335 325 318 288 305 301 299 259 232 254 264 265 264 270 266 253 211 239 234 271 291 286 246 252 255 262 277 288 289 286 299 300 306 316 317 307 302 319 267 253 196 194 180 175 184
109 110 354 304 282 247 252 246 150 303 16 54 31 19 27 38 30 33 21 17 18 12 355 350 351 339 340 346 338 327 328 339 324 336 343 346 339 332 322 319 305 288 264 254 178 158 230 248 247 262 277 270 254 264 262 282 282 290 292 280 282 298 265 267 299 308 298 288 285 246 218 197 197 206
288 217 208 215 110 62 23 352 325 334 46 42 62 75 11 32 34 27 33 29 8 356 346 344 341 330 343 323 325 336 338 340 342 349 342 338 324 321 323 310 299 308 317 13 154 236 233 238 257 243 256 273 281 278 276 270 276 283 283 278 278 268 292 298 282 285 288 292 300 294 290 270 242 219
314 333 121 23 203 200 172 210 222 50 47 30 356 27 24 39 46 30 30 23 0 342 329 338 328 324 342 337 341 340 342 342 333 337 334 324 315 318 320 309 308 323 336 351 334 261 234 250 255 250 251 262 272 284 289 281 279 277 273 272 270 275 305 337 333 337 349 335 309 287 271 278 271 257
313 330 52 115 44 39 66 45 44 40 37 19 13 18 353 28 47 36 34 15 353 341 337 348 339 339 346 347 343 344 338 338 330 328 319 315 323 326 312 321 338 346 347 339 330 321 319 292 261 253 244 243 235 244 265 280 269 262 273 293 330 333 333 277 232 275 299 301 286 291 288 278 272 264
266 43 62 32 42 15 36 41 30 19 21 16 5 5 2 33 40 32 26 12 346 347 344 341 330 355 2 347 347 340 338 337 334 322 336 336 331 323 346 342 342 353 350 341 336 343 348 340 333 316 286 256 236 232 233 244 257 268 303 343 325 294 284 262 249 257 260 257 271 289 288 287 286 292
33 67 34 27 35 24 34 38 29 14 17 13 9 14 15 34 30 19 18 10 359 351 348 335 353 15 358 345 345 345 345 343 332 346 343 331 341 349 353 355 356 353 350 344 351 350 335 322 311 304 304 301 299 273 231 235 291 13 334 314 330 321 318 315 295 268 243 252 238 253 268 279 280 272
30 47 51 49 38 31 37 38 31 31 18 18 19 9 10 20 35 23 7 21 6 353 346 335 10 8 351 347 351 347 344 341 346 344 344 359 1 2 0 355 353 356 353 349 342 326 318 313 314 325 347 348 337 333 327 12 67 356 344 330 324 318 308 309 307 304 289 271 245 236 257 263 275 280
47 38 50 43 43 41 29 27 27 37 27 12 30 5 4 5 24 46 15 42 12 352 340 331 16 2 345 357 352 348 345 348 347 352 359 0 357 358 350 350 355 349 337 327 315 312 329 338 343 26 12 356 347 332 323 334 346 346 340 328 316 305 304 301 301 293 278 275 275 266 263 261 272 273
43 41 47 49 34 41 36 33 23 28 30 3 26 18 359 23 345 55 28 61 22 357 339 351 18 354 344 1 349 350 345 345 342 354 358 351 346 343 343 341 342 326 318 309 320 339 348 334 331 9 358 339 323 319 312 321 312 310 314 301 294 292 296 299 295 295 293 286 282 276 286 297 292 297
45 47 53 56 44 33 35 10 22 11 357 20 357 39 11 355 318 38 14 21 37 5 331 342 356 341 337 347 345 355 345 338 337 345 355 349 337 330 327 331 319 310 306 321 335 326 320 319 345 345 339 325 317 305 306 305 306 308 294 286 280 282 284 281 284 288 287 295 293 291 269 261 282 280
65 62 37 41 48 21 33 49 25 12 355 18 346 24 1 312 311 36 358 25 15 351 330 349 3 357 353 359 356 356 346 339 350 1 355 348 338 336 335 338 332 329 336 342 341 342 341 354 355 351 340 324 300 294 302 294 285 278 279 286 299 299 258 260 290 294 295 301 308 324 312 312 298 296
65 102 97 28 47 50 10 18 17 12 1 357 312 2 1 329 340 31 348 37 332 298 12 19 7 352 359 351 342 349 347 344 352 349 344 343 344 345 346 347 343 350 348 339 344 344 349 353 347 346 342 335 326 319 304 303 312 320 319 323 330 323 315 311 297 291 300 304 299 290 290 284 289 291
11 42 54 43 31 20 359 21 39 342 319 335 352 7 318 328 351 335 351 4 320 337 42 12 355 344 347 342 350 356 353 352 355 349 345 343 342 342 345 345 342 347 345 344 343 342 342 347 348 346 341 337 338 341 335 329 328 326 318 309 304 311 319 325 320 311 293 279 291 291 276 285 276 281
45 39 39 25 340 8 19 360 12 357 359 326 315 298 299 344 333 348 350 339 319 6 28 8 356 355 360 357 355 352 341 348 350 342 341 342 343 341 343 340 341 341 340 335 337 338 341 345 343 342 339 336 339 337 323 323 320 320 325 329 327 316 299 291 287 285 294 295 277 259 260 269 292 275
54 54 56 71 289 332 338 305 257 295 311 321 332 333 343 344 336 348 353 347 350 358 4 3 6 3 356 349 346 340 341 345 337 333 337 334 337 338 335 334 333 335 334 332 332 332 335 334 333 332 332 332 334 327 324 328 326 329 325 318 317 323 325 329 328 324 316 302 297 285 260 244 235 240
30 109 142 204 232 260 242 310 2 4 9 6 355 345 337 349 358 356 352 355 357 351 346 356 1 357 353 349 345 337 338 336 332 332 332 329 330 326 325 325 324 324 321 326 323 322 325 323 322 322 322 324 323 320 323 324 322 320 317 323 329 329 324 322 316 307 300 302 296 292 283 272 260 257